[Date Prev][Date Next][Thread Prev][Thread Next] - [Date Index][Thread Index][Author Index]
2 Line ISS Keps 1-24
- Subject: [sarex] 2 Line ISS Keps 1-24
- From: "Dave Larsen PhD" <doc@xxxxxxxxxxx>
- Date: Mon, 24 Jan 2005 04:56:00 -0800
ISS
1 25544U 98067A 05024.42087963 .00026384 00000-0 21617-3 0 6619
2 25544 51.6472 275.9874 0009334 23.8388 324.5640 15.70264044353075
----
Via the sarex mailing list at AMSAT.ORG courtesy of AMSAT-NA.
To unsubscribe, send "unsubscribe sarex" to Majordomo@amsat.org
AMSAT Home